owner,sensor,date,latitude,longitude,vertical_datum,sea_water_temperature,qcFlag
BP,ioos:station:wmo:42369:3,2021-09-01T00:00:00Z,27.2142,-90.2814,457.2,68.6,11144222
BP,ioos:station:wmo:42369:3,2021-09-01T00:20:00Z,27.2142,-90.2818,457.0,68.6,11144222
BP,ioos:station:wmo:42369:3,2021-09-01T00:40:00Z,27.2143,-90.2820,457.0,68.6,11144222
BP,ioos:station:wmo:42369:3,2021-09-01T01:00:00Z,27.2144,-90.2821,459.4,68.6,11144222
BP,ioos:station:wmo:42369:3,2021-09-01T01:20:00Z,27.2144,-90.2822,458.8,68.6,11144222
BP,ioos:station:wmo:42369:3,2021-09-01T01:40:00Z,27.2144,-90.2823,458.9,68.6,11144222
BP,ioos:station:wmo:42369:3,2021-09-01T02:00:00Z,27.2143,-90.2824,459.6,68.6,11144222
BP,ioos:station:wmo:42369:3,2021-09-01T02:20:00Z,27.2142,-90.2826,459.3,68.6,11144222
BP,ioos:station:wmo:42369:3,2021-09-01T02:40:00Z,27.2142,-90.2828,458.4,68.6,11144222
BP,ioos:station:wmo:42369:3,2021-09-01T03:00:00Z,27.2141,-90.2830,457.9,68.6,11144222
BP,ioos:station:wmo:42369:3,2021-09-01T03:20:00Z,27.2140,-90.2831,457.8,68.6,11144222
BP,ioos:station:wmo:42369:3,2021-09-01T03:40:00Z,27.2140,-90.2833,456.5,68.6,11144222
BP,ioos:station:wmo:42369:3,2021-09-01T04:00:00Z,27.2140,-90.2834,455.8,68.6,11144222
BP,ioos:station:wmo:42369:3,2021-09-01T04:20:00Z,27.2140,-90.2836,455.3,68.7,11144222
BP,ioos:station:wmo:42369:3,2021-09-01T04:40:00Z,27.2139,-90.2838,454.3,68.7,11144222
BP,ioos:station:wmo:42369:3,2021-09-01T05:00:00Z,27.2139,-90.2839,455.5,68.7,11144222
BP,ioos:station:wmo:42369:3,2021-09-01T05:20:00Z,27.2139,-90.2842,455.0,68.7,11144222
BP,ioos:station:wmo:42369:3,2021-09-01T05:40:00Z,27.2139,-90.2843,455.8,68.7,11144222
BP,ioos:station:wmo:42369:3,2021-09-01T06:00:00Z,27.2138,-90.2844,454.1,68.6,11144222
BP,ioos:station:wmo:42369:3,2021-09-01T06:20:00Z,27.2139,-90.2845,455.5,68.7,11144222
BP,ioos:station:wmo:42369:3,2021-09-01T06:40:00Z,27.2139,-90.2846,457.4,68.7,11144222
BP,ioos:station:wmo:42369:3,2021-09-01T07:00:00Z,27.2139,-90.2847,456.3,68.7,11144222
BP,ioos:station:wmo:42369:3,2021-09-01T07:20:00Z,27.2139,-90.2848,458.5,68.7,11144222
BP,ioos:station:wmo:42369:3,2021-09-01T07:40:00Z,27.2140,-90.2850,459.1,68.7,11144222
BP,ioos:station:wmo:42369:3,2021-09-01T08:00:00Z,27.2140,-90.2850,459.6,68.7,11144222
BP,ioos:station:wmo:42369:3,2021-09-01T08:20:00Z,27.2140,-90.2851,460.3,68.7,11144222
BP,ioos:station:wmo:42369:3,2021-09-01T08:40:00Z,27.2142,-90.2851,462.5,68.7,11144222
BP,ioos:station:wmo:42369:3,2021-09-01T09:00:00Z,27.2142,-90.2851,463.5,68.7,11144222
BP,ioos:station:wmo:42369:3,2021-09-01T09:20:00Z,27.2143,-90.2851,464.8,68.7,11144222
BP,ioos:station:wmo:42369:3,2021-09-01T09:40:00Z,27.2143,-90.2851,466.5,68.7,11144222
BP,ioos:station:wmo:42369:3,2021-09-01T10:00:00Z,27.2143,-90.2852,466.2,68.7,11144222
BP,ioos:station:wmo:42369:3,2021-09-01T10:20:00Z,27.2143,-90.2852,466.4,68.7,11144222
BP,ioos:station:wmo:42369:3,2021-09-01T10:40:00Z,27.2144,-90.2851,468.5,68.7,11144222
BP,ioos:station:wmo:42369:3,2021-09-01T11:00:00Z,27.2144,-90.2851,469.3,68.7,11144222
BP,ioos:station:wmo:42369:3,2021-09-01T11:20:00Z,27.2145,-90.2850,470.3,68.7,11144222
BP,ioos:station:wmo:42369:3,2021-09-01T11:40:00Z,27.2145,-90.2849,471.2,68.7,11144222
BP,ioos:station:wmo:42369:3,2021-09-01T12:00:00Z,27.2145,-90.2850,471.2,68.7,11144222
BP,ioos:station:wmo:42369:3,2021-09-01T12:20:00Z,27.2145,-90.2849,470.7,68.7,11144222
BP,ioos:station:wmo:42369:3,2021-09-01T12:40:00Z,27.2145,-90.2849,472.1,68.7,11144222
BP,ioos:station:wmo:42369:3,2021-09-01T13:00:00Z,27.2147,-90.2848,473.2,68.7,11144222
BP,ioos:station:wmo:42369:3,2021-09-01T13:20:00Z,27.2147,-90.2846,474.8,68.7,11144222
BP,ioos:station:wmo:42369:3,2021-09-01T13:40:00Z,27.2144,-90.2851,475.3,68.7,11144222
BP,ioos:station:wmo:42369:3,2021-09-01T14:00:00Z,27.2148,-90.2844,476.8,68.7,11144222
BP,ioos:station:wmo:42369:3,2021-09-01T14:20:00Z,27.2148,-90.2843,476.7,68.7,11144222
BP,ioos:station:wmo:42369:3,2021-09-01T14:40:00Z,27.2149,-90.2844,477.0,68.7,11144222
BP,ioos:station:wmo:42369:3,2021-09-01T15:00:00Z,27.2149,-90.2843,478.1,68.7,11144222
BP,ioos:station:wmo:42369:3,2021-09-01T15:20:00Z,27.2149,-90.2842,479.8,68.7,11144222
BP,ioos:station:wmo:42369:3,2021-09-01T15:40:00Z,27.2150,-90.2842,480.0,68.7,11144222
BP,ioos:station:wmo:42369:3,2021-09-01T16:00:00Z,27.2150,-90.2841,482.1,68.7,11144222
BP,ioos:station:wmo:42369:3,2021-09-01T16:20:00Z,27.2150,-90.2841,482.4,68.7,11144222
BP,ioos:station:wmo:42369:3,2021-09-01T16:40:00Z,27.2151,-90.2840,483.4,68.7,11144222
BP,ioos:station:wmo:42369:3,2021-09-01T17:00:00Z,27.2151,-90.2839,483.8,68.7,11144222
BP,ioos:station:wmo:42369:3,2021-09-01T17:20:00Z,27.2151,-90.2839,484.2,68.7,11144222
BP,ioos:station:wmo:42369:3,2021-09-01T17:40:00Z,27.2151,-90.2839,485.0,68.7,11144222
BP,ioos:station:wmo:42369:3,2021-09-01T18:00:00Z,27.2151,-90.2839,483.2,68.8,11144222
BP,ioos:station:wmo:42369:3,2021-09-01T18:20:00Z,27.2151,-90.2838,484.5,68.8,11144222
BP,ioos:station:wmo:42369:3,2021-09-01T18:40:00Z,27.2151,-90.2837,485.7,68.8,11144222
BP,ioos:station:wmo:42369:3,2021-09-01T19:00:00Z,27.2151,-90.2837,486.0,68.7,11144222
BP,ioos:station:wmo:42369:3,2021-09-01T19:20:00Z,27.2151,-90.2836,486.1,68.7,11144222
BP,ioos:station:wmo:42369:3,2021-09-01T19:40:00Z,27.2151,-90.2835,486.7,68.7,11144222
BP,ioos:station:wmo:42369:3,2021-09-01T20:00:00Z,27.2151,-90.2834,485.9,68.7,11144222
BP,ioos:station:wmo:42369:3,2021-09-01T20:20:00Z,27.2151,-90.2833,484.9,68.7,11144222
BP,ioos:station:wmo:42369:3,2021-09-01T20:40:00Z,27.2151,-90.2832,484.2,68.7,11144222
BP,ioos:station:wmo:42369:3,2021-09-01T21:00:00Z,27.2151,-90.2831,482.1,68.7,11144222
BP,ioos:station:wmo:42369:3,2021-09-01T21:20:00Z,27.2150,-90.2829,480.6,68.7,11144222
BP,ioos:station:wmo:42369:3,2021-09-01T21:40:00Z,27.2150,-90.2829,481.2,68.7,11144222
BP,ioos:station:wmo:42369:3,2021-09-01T22:00:00Z,27.2150,-90.2829,479.3,68.7,11144222
BP,ioos:station:wmo:42369:3,2021-09-01T22:20:00Z,27.2149,-90.2827,476.5,68.7,11144222
BP,ioos:station:wmo:42369:3,2021-09-01T22:40:00Z,27.2149,-90.2827,475.1,68.7,11144222
BP,ioos:station:wmo:42369:3,2021-09-01T23:00:00Z,27.2149,-90.2826,473.5,68.7,11144222
BP,ioos:station:wmo:42369:3,2021-09-01T23:20:00Z,27.2148,-90.2826,472.2,68.7,11144222
BP,ioos:station:wmo:42369:3,2021-09-01T23:40:00Z,27.2148,-90.2826,471.1,68.7,11144222
BP,ioos:station:wmo:42369:3,2021-09-02T00:00:00Z,27.2148,-90.2827,469.8,68.7,11144222
BP,ioos:station:wmo:42369:3,2021-09-02T00:20:00Z,27.2148,-90.2828,469.8,68.7,11144222
BP,ioos:station:wmo:42369:3,2021-09-02T00:40:00Z,27.2148,-90.2828,469.2,68.7,11144222
BP,ioos:station:wmo:42369:3,2021-09-02T01:00:00Z,27.2147,-90.2828,466.8,68.7,11144222
BP,ioos:station:wmo:42369:3,2021-09-02T01:20:00Z,27.2147,-90.2828,466.6,68.7,11144222
BP,ioos:station:wmo:42369:3,2021-09-02T01:40:00Z,27.2147,-90.2828,466.3,68.7,11144222
BP,ioos:station:wmo:42369:3,2021-09-02T02:00:00Z,27.2146,-90.2828,464.2,68.7,11144222
BP,ioos:station:wmo:42369:3,2021-09-02T02:20:00Z,27.2145,-90.2827,463.6,68.7,11144222
BP,ioos:station:wmo:42369:3,2021-09-02T02:40:00Z,27.2145,-90.2828,462.8,68.7,11144222
BP,ioos:station:wmo:42369:3,2021-09-02T03:00:00Z,27.2145,-90.2828,462.4,68.7,11144222
BP,ioos:station:wmo:42369:3,2021-09-02T03:20:00Z,27.2145,-90.2828,462.7,68.7,11144222
BP,ioos:station:wmo:42369:3,2021-09-02T03:40:00Z,27.2145,-90.2828,461.6,68.7,11144222
BP,ioos:station:wmo:42369:3,2021-09-02T04:00:00Z,27.2145,-90.2828,461.0,68.7,11144222
BP,ioos:station:wmo:42369:3,2021-09-02T04:20:00Z,27.2145,-90.2828,461.7,68.8,11144222
BP,ioos:station:wmo:42369:3,2021-09-02T04:40:00Z,27.2145,-90.2829,459.0,68.7,11144222
BP,ioos:station:wmo:42369:3,2021-09-02T05:00:00Z,27.2144,-90.2829,460.2,68.7,11144222
BP,ioos:station:wmo:42369:3,2021-09-02T05:20:00Z,27.2144,-90.2830,459.0,68.7,11144222
BP,ioos:station:wmo:42369:3,2021-09-02T05:40:00Z,27.2144,-90.2831,459.4,68.7,11144222
BP,ioos:station:wmo:42369:3,2021-09-02T06:00:00Z,27.2144,-90.2832,459.6,68.7,11144222
BP,ioos:station:wmo:42369:3,2021-09-02T06:20:00Z,27.2144,-90.2833,459.1,68.7,11144222
BP,ioos:station:wmo:42369:3,2021-09-02T06:40:00Z,27.2144,-90.2833,459.5,68.7,11144222
BP,ioos:station:wmo:42369:3,2021-09-02T07:00:00Z,27.2144,-90.2832,461.3,68.7,11144222
BP,ioos:station:wmo:42369:3,2021-09-02T07:20:00Z,27.2144,-90.2833,460.9,68.7,11144222
BP,ioos:station:wmo:42369:3,2021-09-02T07:40:00Z,27.2145,-90.2834,462.4,68.7,11144222
BP,ioos:station:wmo:42369:3,2021-09-02T08:00:00Z,27.2145,-90.2835,462.5,68.7,11144222
BP,ioos:station:wmo:42369:3,2021-09-02T08:20:00Z,27.2145,-90.2835,463.1,68.7,11144222
BP,ioos:station:wmo:42369:3,2021-09-02T08:40:00Z,27.2145,-90.2835,463.0,68.7,11144222
BP,ioos:station:wmo:42369:3,2021-09-02T09:00:00Z,27.2145,-90.2834,464.0,68.7,11144222
BP,ioos:station:wmo:42369:3,2021-09-02T09:20:00Z,27.2146,-90.2834,465.5,68.7,11144222
BP,ioos:station:wmo:42369:3,2021-09-02T09:40:00Z,27.2146,-90.2834,466.5,68.7,11144222
BP,ioos:station:wmo:42369:3,2021-09-02T10:00:00Z,27.2148,-90.2834,466.6,68.7,11144222
BP,ioos:station:wmo:42369:3,2021-09-02T10:20:00Z,27.2148,-90.2834,468.1,68.7,11144222
BP,ioos:station:wmo:42369:3,2021-09-02T10:40:00Z,27.2149,-90.2834,469.3,68.7,11144222
BP,ioos:station:wmo:42369:3,2021-09-02T11:00:00Z,27.2149,-90.2834,471.4,68.7,11144222
BP,ioos:station:wmo:42369:3,2021-09-02T11:20:00Z,27.2150,-90.2833,473.7,68.7,11144222
BP,ioos:station:wmo:42369:3,2021-09-02T11:40:00Z,27.2150,-90.2832,472.4,68.7,11144222
BP,ioos:station:wmo:42369:3,2021-09-02T12:00:00Z,27.2150,-90.2832,472.9,68.7,11144222
BP,ioos:station:wmo:42369:3,2021-09-02T12:20:00Z,27.2150,-90.2832,475.0,68.7,11144222
BP,ioos:station:wmo:42369:3,2021-09-02T12:40:00Z,27.2151,-90.2831,476.0,68.8,11144222
BP,ioos:station:wmo:42369:3,2021-09-02T13:00:00Z,27.2151,-90.2831,475.8,68.8,11144222
BP,ioos:station:wmo:42369:3,2021-09-02T13:20:00Z,27.2151,-90.2831,476.4,68.8,11144222
BP,ioos:station:wmo:42369:3,2021-09-02T13:40:00Z,27.2151,-90.2830,476.7,68.7,11144222
BP,ioos:station:wmo:42369:3,2021-09-02T14:00:00Z,27.2151,-90.2830,478.0,68.7,11144222
BP,ioos:station:wmo:42369:3,2021-09-02T14:20:00Z,27.2152,-90.2829,478.3,68.8,11144222
BP,ioos:station:wmo:42369:3,2021-09-02T14:40:00Z,27.2152,-90.2828,478.8,68.8,11144222
BP,ioos:station:wmo:42369:3,2021-09-02T15:00:00Z,27.2152,-90.2827,480.1,68.8,11144222
BP,ioos:station:wmo:42369:3,2021-09-02T15:20:00Z,27.2152,-90.2825,480.5,68.8,11144222
BP,ioos:station:wmo:42369:3,2021-09-02T15:40:00Z,27.2153,-90.2823,482.0,68.7,11144222
BP,ioos:station:wmo:42369:3,2021-09-02T16:00:00Z,27.2153,-90.2822,482.1,68.7,11144222
BP,ioos:station:wmo:42369:3,2021-09-02T16:20:00Z,27.2153,-90.2820,482.8,68.8,11144222
BP,ioos:station:wmo:42369:3,2021-09-02T16:40:00Z,27.2153,-90.2818,482.6,68.8,11144222
BP,ioos:station:wmo:42369:3,2021-09-02T17:00:00Z,27.2154,-90.2816,483.7,68.8,11144222
BP,ioos:station:wmo:42369:3,2021-09-02T17:20:00Z,27.2154,-90.2814,485.3,68.8,11144222
BP,ioos:station:wmo:42369:3,2021-09-02T17:40:00Z,27.2154,-90.2812,485.8,68.8,11144222
BP,ioos:station:wmo:42369:3,2021-09-02T18:00:00Z,27.2154,-90.2810,486.1,68.8,11144222
BP,ioos:station:wmo:42369:3,2021-09-02T18:20:00Z,27.2154,-90.2809,487.3,68.8,11144222
BP,ioos:station:wmo:42369:3,2021-09-02T18:40:00Z,27.2153,-90.2806,486.7,68.8,11144222
BP,ioos:station:wmo:42369:3,2021-09-02T19:00:00Z,27.2153,-90.2804,487.2,68.8,11144222
BP,ioos:station:wmo:42369:3,2021-09-02T19:20:00Z,27.2153,-90.2801,488.2,68.7,11144222
BP,ioos:station:wmo:42369:3,2021-09-02T19:40:00Z,27.2153,-90.2799,487.9,68.8,11144222
BP,ioos:station:wmo:42369:3,2021-09-02T20:00:00Z,27.2153,-90.2798,487.9,68.8,11144222
BP,ioos:station:wmo:42369:3,2021-09-02T20:20:00Z,27.2152,-90.2795,486.4,68.8,11144222
BP,ioos:station:wmo:42369:3,2021-09-02T20:40:00Z,27.2151,-90.2793,488.3,68.8,11144222
BP,ioos:station:wmo:42369:3,2021-09-02T21:00:00Z,27.2151,-90.2791,487.6,68.8,11144222
BP,ioos:station:wmo:42369:3,2021-09-02T21:20:00Z,27.2150,-90.2790,487.0,68.8,11144222
BP,ioos:station:wmo:42369:3,2021-09-02T21:40:00Z,27.2149,-90.2787,486.0,68.8,11144222
BP,ioos:station:wmo:42369:3,2021-09-02T22:00:00Z,27.2148,-90.2785,484.1,68.8,11144222
BP,ioos:station:wmo:42369:3,2021-09-02T22:20:00Z,27.2147,-90.2783,485.2,68.8,11144222
BP,ioos:station:wmo:42369:3,2021-09-02T22:40:00Z,27.2147,-90.2781,485.3,68.8,11144222
BP,ioos:station:wmo:42369:3,2021-09-02T23:00:00Z,27.2146,-90.2779,485.1,68.8,11144222
BP,ioos:station:wmo:42369:3,2021-09-02T23:20:00Z,27.2145,-90.2778,482.9,68.8,11144222
BP,ioos:station:wmo:42369:3,2021-09-02T23:40:00Z,27.2144,-90.2777,481.7,68.8,11144222
BP,ioos:station:wmo:42369:3,2021-09-03T00:00:00Z,27.2144,-90.2777,480.3,68.8,11144222
BP,ioos:station:wmo:42369:3,2021-09-03T00:20:00Z,27.2144,-90.2777,480.3,68.8,11144222
BP,ioos:station:wmo:42369:3,2021-09-03T00:40:00Z,27.2143,-90.2779,477.5,68.7,11144222
BP,ioos:station:wmo:42369:3,2021-09-03T01:00:00Z,27.2143,-90.2780,474.7,68.8,11144222
BP,ioos:station:wmo:42369:3,2021-09-03T01:20:00Z,27.2143,-90.2781,474.1,68.8,11144222
BP,ioos:station:wmo:42369:3,2021-09-03T01:40:00Z,27.2143,-90.2781,471.4,68.8,11144222
BP,ioos:station:wmo:42369:3,2021-09-03T02:00:00Z,27.2143,-90.2782,469.9,68.8,11144222
BP,ioos:station:wmo:42369:3,2021-09-03T02:20:00Z,27.2143,-90.2784,468.3,68.8,11144222
BP,ioos:station:wmo:42369:3,2021-09-03T02:40:00Z,27.2142,-90.2787,467.1,68.7,11144222
BP,ioos:station:wmo:42369:3,2021-09-03T03:00:00Z,27.2143,-90.2789,467.0,68.7,11144222
BP,ioos:station:wmo:42369:3,2021-09-03T03:20:00Z,27.2143,-90.2791,465.4,68.7,11144222
BP,ioos:station:wmo:42369:3,2021-09-03T03:40:00Z,27.2143,-90.2793,464.7,68.7,11144222
BP,ioos:station:wmo:42369:3,2021-09-03T04:00:00Z,27.2144,-90.2795,465.3,68.7,11144222
BP,ioos:station:wmo:42369:3,2021-09-03T04:20:00Z,27.2144,-90.2797,464.5,68.7,11144222
BP,ioos:station:wmo:42369:3,2021-09-03T04:40:00Z,27.2144,-90.2799,463.9,68.7,11144222
BP,ioos:station:wmo:42369:3,2021-09-03T05:00:00Z,27.2144,-90.2801,463.2,68.7,11144222
BP,ioos:station:wmo:42369:3,2021-09-03T05:20:00Z,27.2144,-90.2802,463.3,68.7,11144222
BP,ioos:station:wmo:42369:3,2021-09-03T05:40:00Z,27.2144,-90.2803,461.7,68.7,11144222
BP,ioos:station:wmo:42369:3,2021-09-03T06:00:00Z,27.2144,-90.2804,461.5,68.7,11144222
BP,ioos:station:wmo:42369:3,2021-09-03T06:20:00Z,27.2144,-90.2805,461.5,68.7,11144222
BP,ioos:station:wmo:42369:3,2021-09-03T06:40:00Z,27.2144,-90.2806,460.6,68.7,11144222
BP,ioos:station:wmo:42369:3,2021-09-03T07:00:00Z,27.2144,-90.2806,460.5,68.7,11144222
BP,ioos:station:wmo:42369:3,2021-09-03T07:20:00Z,27.2144,-90.2807,460.4,68.7,11144222
BP,ioos:station:wmo:42369:3,2021-09-03T07:40:00Z,27.2144,-90.2807,461.8,68.7,11144222
BP,ioos:station:wmo:42369:3,2021-09-03T08:00:00Z,27.2144,-90.2808,462.1,68.7,11144222
BP,ioos:station:wmo:42369:3,2021-09-03T08:20:00Z,27.2145,-90.2809,461.7,68.7,11144222
BP,ioos:station:wmo:42369:3,2021-09-03T08:40:00Z,27.2145,-90.2809,463.8,68.7,11144222
BP,ioos:station:wmo:42369:3,2021-09-03T09:00:00Z,27.2146,-90.2810,463.7,68.7,11144222
BP,ioos:station:wmo:42369:3,2021-09-03T09:20:00Z,27.2146,-90.2810,464.0,68.7,11144222
BP,ioos:station:wmo:42369:3,2021-09-03T09:40:00Z,27.2147,-90.2810,466.5,68.7,11144222
BP,ioos:station:wmo:42369:3,2021-09-03T10:00:00Z,27.2147,-90.2810,467.3,68.7,11144222
BP,ioos:station:wmo:42369:3,2021-09-03T10:20:00Z,27.2147,-90.2810,466.5,68.7,11144222
BP,ioos:station:wmo:42369:3,2021-09-03T10:40:00Z,27.2148,-90.2811,469.6,68.8,11144222
BP,ioos:station:wmo:42369:3,2021-09-03T11:00:00Z,27.2148,-90.2811,469.8,68.8,11144222
BP,ioos:station:wmo:42369:3,2021-09-03T11:20:00Z,27.2148,-90.2811,470.2,68.7,11144222
BP,ioos:station:wmo:42369:3,2021-09-03T11:40:00Z,27.2148,-90.2810,470.1,68.7,11144222
BP,ioos:station:wmo:42369:3,2021-09-03T12:00:00Z,27.2149,-90.2810,472.5,68.7,11144222
BP,ioos:station:wmo:42369:3,2021-09-03T12:20:00Z,27.2149,-90.2809,473.0,68.7,11144222
BP,ioos:station:wmo:42369:3,2021-09-03T12:40:00Z,27.2149,-90.2808,472.1,68.8,11144222
BP,ioos:station:wmo:42369:3,2021-09-03T13:00:00Z,27.2149,-90.2808,473.9,68.7,11144222
BP,ioos:station:wmo:42369:3,2021-09-03T13:20:00Z,27.2149,-90.2805,473.7,68.7,11144222
BP,ioos:station:wmo:42369:3,2021-09-03T13:40:00Z,27.2149,-90.2804,473.7,68.7,11144222
BP,ioos:station:wmo:42369:3,2021-09-03T14:00:00Z,27.2149,-90.2803,474.4,68.7,11144222
BP,ioos:station:wmo:42369:3,2021-09-03T14:20:00Z,27.2149,-90.2801,475.4,68.7,11144222
BP,ioos:station:wmo:42369:3,2021-09-03T14:40:00Z,27.2149,-90.2800,476.0,68.7,11144222
BP,ioos:station:wmo:42369:3,2021-09-03T15:00:00Z,27.2149,-90.2799,476.0,68.7,11144222
BP,ioos:station:wmo:42369:3,2021-09-03T15:20:00Z,27.2149,-90.2797,475.7,68.7,11144222
BP,ioos:station:wmo:42369:3,2021-09-03T15:40:00Z,27.2148,-90.2795,476.6,68.7,11144222
BP,ioos:station:wmo:42369:3,2021-09-03T16:00:00Z,27.2148,-90.2795,475.6,68.7,11144222
BP,ioos:station:wmo:42369:3,2021-09-03T16:20:00Z,27.2147,-90.2792,474.9,68.8,11144222
BP,ioos:station:wmo:42369:3,2021-09-03T16:40:00Z,27.2147,-90.2791,475.7,68.8,11144222
BP,ioos:station:wmo:42369:3,2021-09-03T17:00:00Z,27.2147,-90.2789,477.2,68.7,11144222
BP,ioos:station:wmo:42369:3,2021-09-03T17:20:00Z,27.2147,-90.2788,477.8,68.7,11144222
BP,ioos:station:wmo:42369:3,2021-09-03T17:40:00Z,27.2147,-90.2787,477.4,68.7,11144222
BP,ioos:station:wmo:42369:3,2021-09-03T18:00:00Z,27.2146,-90.2787,477.6,68.7,11144222
BP,ioos:station:wmo:42369:3,2021-09-03T18:20:00Z,27.2146,-90.2786,478.0,68.8,11144222
BP,ioos:station:wmo:42369:3,2021-09-03T18:40:00Z,27.2146,-90.2786,479.1,68.7,11144222
BP,ioos:station:wmo:42369:3,2021-09-03T19:00:00Z,27.2146,-90.2784,478.4,68.7,11144222
BP,ioos:station:wmo:42369:3,2021-09-03T19:20:00Z,27.2145,-90.2782,477.8,68.8,11144222
BP,ioos:station:wmo:42369:3,2021-09-03T19:40:00Z,27.2144,-90.2776,478.4,68.8,11144222
BP,ioos:station:wmo:42369:3,2021-09-03T20:00:00Z,27.2144,-90.2776,479.4,68.8,11144222
BP,ioos:station:wmo:42369:3,2021-09-03T20:20:00Z,27.2144,-90.2776,479.7,68.8,11144222
BP,ioos:station:wmo:42369:3,2021-09-03T20:40:00Z,27.2144,-90.2777,480.5,68.8,11144222
BP,ioos:station:wmo:42369:3,2021-09-03T21:00:00Z,27.2144,-90.2777,481.5,68.8,11144222
BP,ioos:station:wmo:42369:3,2021-09-03T21:20:00Z,27.2144,-90.2777,480.2,68.8,11144222
BP,ioos:station:wmo:42369:3,2021-09-03T21:40:00Z,27.2144,-90.2777,481.9,68.6,11144222
BP,ioos:station:wmo:42369:3,2021-09-03T22:00:00Z,27.2144,-90.2779,483.0,68.7,11144222
BP,ioos:station:wmo:42369:3,2021-09-03T22:20:00Z,27.2144,-90.2777,484.4,68.7,11144222
BP,ioos:station:wmo:42369:3,2021-09-03T22:40:00Z,27.2144,-90.2777,484.4,68.8,11144222
BP,ioos:station:wmo:42369:3,2021-09-03T23:00:00Z,27.2145,-90.2777,483.6,68.8,11144222
BP,ioos:station:wmo:42369:3,2021-09-03T23:20:00Z,27.2145,-90.2777,484.6,68.7,11144222
BP,ioos:station:wmo:42369:3,2021-09-03T23:40:00Z,27.2145,-90.2778,483.8,68.7,11144222
BP,ioos:station:wmo:42369:3,2021-09-04T00:00:00Z,27.2145,-90.2778,483.5,68.7,11144222
BP,ioos:station:wmo:42369:3,2021-09-04T00:20:00Z,27.2145,-90.2778,482.1,68.7,11144222
BP,ioos:station:wmo:42369:3,2021-09-04T00:40:00Z,27.2144,-90.2779,482.4,68.7,11144222
BP,ioos:station:wmo:42369:3,2021-09-04T01:00:00Z,27.2145,-90.2779,482.1,68.7,11144222
BP,ioos:station:wmo:42369:3,2021-09-04T01:20:00Z,27.2145,-90.2780,483.8,68.7,11144222
BP,ioos:station:wmo:42369:3,2021-09-04T01:40:00Z,27.2146,-90.2780,484.2,68.7,11144222
BP,ioos:station:wmo:42369:3,2021-09-04T02:00:00Z,27.2146,-90.2780,483.8,68.7,11144222
BP,ioos:station:wmo:42369:3,2021-09-04T02:20:00Z,27.2146,-90.2781,483.7,68.7,11144222
BP,ioos:station:wmo:42369:3,2021-09-04T02:40:00Z,27.2145,-90.2782,483.0,68.7,11144222
BP,ioos:station:wmo:42369:3,2021-09-04T03:00:00Z,27.2145,-90.2782,482.7,68.7,11144222
BP,ioos:station:wmo:42369:3,2021-09-04T03:20:00Z,27.2145,-90.2782,481.7,68.7,11144222
BP,ioos:station:wmo:42369:3,2021-09-04T03:40:00Z,27.2145,-90.2782,481.9,68.8,11144222
BP,ioos:station:wmo:42369:3,2021-09-04T04:00:00Z,27.2145,-90.2782,480.0,68.7,11144222
BP,ioos:station:wmo:42369:3,2021-09-04T04:20:00Z,27.2145,-90.2782,479.0,68.7,11144222
BP,ioos:station:wmo:42369:3,2021-09-04T04:40:00Z,27.2145,-90.2782,479.0,68.7,11144222
BP,ioos:station:wmo:42369:3,2021-09-04T05:00:00Z,27.2145,-90.2782,478.0,68.7,11144222
BP,ioos:station:wmo:42369:3,2021-09-04T05:20:00Z,27.2145,-90.2782,476.9,68.7,11144222
BP,ioos:station:wmo:42369:3,2021-09-04T05:40:00Z,27.2144,-90.2783,476.7,68.7,11144222
BP,ioos:station:wmo:42369:3,2021-09-04T06:00:00Z,27.2145,-90.2783,476.2,68.7,11144222
BP,ioos:station:wmo:42369:3,2021-09-04T06:20:00Z,27.2145,-90.2783,476.8,68.7,11144222
BP,ioos:station:wmo:42369:3,2021-09-04T06:40:00Z,27.2144,-90.2783,476.0,68.7,11144222
BP,ioos:station:wmo:42369:3,2021-09-04T07:00:00Z,27.2144,-90.2783,475.6,68.7,11144222
BP,ioos:station:wmo:42369:3,2021-09-04T07:20:00Z,27.2144,-90.2783,474.1,68.6,11144222
BP,ioos:station:wmo:42369:3,2021-09-04T07:40:00Z,27.2144,-90.2784,474.9,68.6,11144222
BP,ioos:station:wmo:42369:3,2021-09-04T08:00:00Z,27.2145,-90.2785,476.1,68.7,11144222
BP,ioos:station:wmo:42369:3,2021-09-04T08:20:00Z,27.2145,-90.2785,475.9,68.7,11144222
BP,ioos:station:wmo:42369:3,2021-09-04T08:40:00Z,27.2145,-90.2785,476.6,68.7,11144222
BP,ioos:station:wmo:42369:3,2021-09-04T09:00:00Z,27.2146,-90.2785,476.6,68.7,11144222
BP,ioos:station:wmo:42369:3,2021-09-04T09:20:00Z,27.2145,-90.2784,475.2,68.7,11144222
BP,ioos:station:wmo:42369:3,2021-09-04T09:40:00Z,27.2145,-90.2783,476.4,68.7,11144222
BP,ioos:station:wmo:42369:3,2021-09-04T10:00:00Z,27.2145,-90.2783,476.8,68.7,11144222
BP,ioos:station:wmo:42369:3,2021-09-04T10:20:00Z,27.2146,-90.2783,477.5,68.7,11144222
BP,ioos:station:wmo:42369:3,2021-09-04T10:40:00Z,27.2146,-90.2782,477.7,68.7,11144222
BP,ioos:station:wmo:42369:3,2021-09-04T11:00:00Z,27.2145,-90.2783,477.5,68.7,11144222
BP,ioos:station:wmo:42369:3,2021-09-04T11:20:00Z,27.2146,-90.2783,478.6,68.7,11144222
BP,ioos:station:wmo:42369:3,2021-09-04T11:40:00Z,27.2146,-90.2783,478.9,68.7,11144222
BP,ioos:station:wmo:42369:3,2021-09-04T12:00:00Z,27.2146,-90.2783,478.7,68.7,11144222
BP,ioos:station:wmo:42369:3,2021-09-04T12:20:00Z,27.2146,-90.2783,478.5,68.7,11144222
BP,ioos:station:wmo:42369:3,2021-09-04T12:40:00Z,27.2146,-90.2784,478.4,68.7,11144222
BP,ioos:station:wmo:42369:3,2021-09-04T13:00:00Z,27.2146,-90.2783,479.6,68.7,11144222
BP,ioos:station:wmo:42369:3,2021-09-04T13:20:00Z,27.2146,-90.2783,479.4,68.7,11144222
BP,ioos:station:wmo:42369:3,2021-09-04T13:40:00Z,27.2147,-90.2783,480.2,68.7,11144222
BP,ioos:station:wmo:42369:3,2021-09-04T14:00:00Z,27.2147,-90.2783,482.3,68.7,11144222
BP,ioos:station:wmo:42369:3,2021-09-04T14:20:00Z,27.2147,-90.2783,482.6,68.7,11144222
BP,ioos:station:wmo:42369:3,2021-09-04T14:40:00Z,27.2147,-90.2782,483.1,68.7,11144222
BP,ioos:station:wmo:42369:3,2021-09-04T15:00:00Z,27.2147,-90.2781,483.6,68.7,11144222
BP,ioos:station:wmo:42369:3,2021-09-04T15:20:00Z,27.2146,-90.2780,484.1,68.7,11144222
BP,ioos:station:wmo:42369:3,2021-09-04T15:40:00Z,27.2146,-90.2779,483.4,68.7,11144222
BP,ioos:station:wmo:42369:3,2021-09-04T16:00:00Z,27.2146,-90.2778,483.2,68.7,11144222
BP,ioos:station:wmo:42369:3,2021-09-04T16:20:00Z,27.2145,-90.2778,482.5,68.7,11144222
BP,ioos:station:wmo:42369:3,2021-09-04T16:40:00Z,27.2145,-90.2778,482.8,68.7,11144222
BP,ioos:station:wmo:42369:3,2021-09-04T17:00:00Z,27.2145,-90.2779,482.4,68.7,11144222
BP,ioos:station:wmo:42369:3,2021-09-04T17:20:00Z,27.2145,-90.2780,481.8,68.7,11144222
BP,ioos:station:wmo:42369:3,2021-09-04T17:40:00Z,27.2145,-90.2780,481.0,68.7,11144222
BP,ioos:station:wmo:42369:3,2021-09-04T18:00:00Z,27.2145,-90.2780,480.3,68.7,11144222
BP,ioos:station:wmo:42369:3,2021-09-04T18:20:00Z,27.2145,-90.2780,479.2,68.7,11144222
BP,ioos:station:wmo:42369:3,2021-09-04T18:40:00Z,27.2144,-90.2780,479.5,68.7,11144222
BP,ioos:station:wmo:42369:3,2021-09-04T19:00:00Z,27.2144,-90.2779,479.5,68.7,11144222